Weather History for Williston, ND

Change the Weather History Date:

Tuesday, November 26, 2013

  Actual Average Record
Temperature  
Mean Temperature 13 °F 21 °F  
Max Temperature 23 °F 32 °F 58 °F (1963)
Min Temperature 3 °F 11 °F -19 °F (1985)
Degree Days  
Heating Degree Days 52 44  
Month to date heating degree days 1009 956  
Since 1 July heating degree days 1918 1983  
Cooling Degree Days 0 0  
Month to date cooling degree days 0 0  
Year to date cooling degree days 405 456  
Moisture  
Dew Point 8 °F    
Average Humidity 73    
Maximum Humidity 88    
Minimum Humidity 57    
Precipitation  
Precipitation 0.00 in 0.02 in 0.40 in (1896)
Month to date precipitation 0.35 0.58  
Year to date precipitation 20.21 13.68  
Sea Level Pressure  
Sea Level Pressure 30.48 in    
Wind  
Wind Speed 5 mph (SSW)    
Max Wind Speed 13 mph    
Max Gust Speed 17 mph    
Visibility 10 miles    
Events      
T = Trace of Precipitation, MM = Missing Value Source: NWS Daily Summary

Daily Weather History Graph

Daily Weather History Graph

Search for Another Location

Airport:

Trip Planner

Search our weather history database for the weather conditions in past years. The results will help you decide how hot, cold, wet, or windy it might be!

Date:

Astronomy

Nov. 26, 2013 Rise Set
Actual Time 8:17 AM CST 5:05 PM CST
Civil Twilight 7:42 AM CST 5:40 PM CST
Nautical Twilight 7:03 AM CST 6:19 PM CST
Astronomical Twilight 6:26 AM CST 6:57 PM CST
Moon 12:53 AM CST (11/26) 1:41 PM CST (11/26)
Length of Visible Light 9h 58m
Length of Day
8h 47m
Last Quarter, 41% of the Moon is Illuminated
Nov 26
Last Quarter
Dec 2
New
Dec 9
First Quarter
Dec 17
Full
Dec 25
Last Quarter

Hourly Weather History & Observations

Time (CST) Temp. Windchill Dew Point Humidity Pressure Visibility Wind Dir Wind Speed Gust Speed Precip Events Conditions
12:52 AM 15.1 °F 5.2 °F 10.9 °F 84% 30.50 in 10.0 mi NNW 6.9 mph - N/A   Clear
1:52 AM 17.1 °F 5.8 °F 12.0 °F 81% 30.50 in 10.0 mi NW 9.2 mph - N/A   Clear
2:52 AM 17.1 °F 4.3 °F 12.0 °F 81% 30.52 in 10.0 mi NW 11.5 mph - N/A   Scattered Clouds
2:57 AM 17.6 °F 5.7 °F 12.2 °F 79% 30.42 in 10.0 mi NW 10.4 mph - N/A   Mostly Cloudy
3:25 AM 17.6 °F 5.0 °F 12.2 °F 79% 30.42 in 10.0 mi NNW 11.5 mph - N/A   Scattered Clouds
3:52 AM 15.1 °F 4.2 °F 10.9 °F 84% 30.53 in 10.0 mi WNW 8.1 mph - N/A   Clear
4:52 AM 14.0 °F 1.2 °F 10.0 °F 84% 30.55 in 10.0 mi NNW 10.4 mph - N/A   Clear
5:52 AM 8.1 °F -3.2 °F 5.0 °F 87% 30.58 in 10.0 mi NW 6.9 mph - N/A   Clear
6:52 AM 8.1 °F - 3.9 °F 83% 30.59 in 10.0 mi Calm Calm - N/A   Clear
7:52 AM 7.0 °F - 3.0 °F 84% 30.60 in 10.0 mi Calm Calm - N/A   Clear
8:52 AM 5.0 °F - -0.0 °F 80% 30.61 in 10.0 mi Calm Calm - N/A   Clear
9:52 AM 12.0 °F - 6.1 °F 77% 30.61 in 10.0 mi Calm Calm - N/A   Clear
10:52 AM 14.0 °F - 9.0 °F 80% 30.61 in 10.0 mi Calm Calm - N/A   Clear
11:52 AM 17.1 °F 10.0 °F 9.0 °F 71% 30.59 in 10.0 mi South 4.6 mph - N/A   Clear
12:52 PM 19.0 °F 12.3 °F 9.0 °F 65% 30.58 in 10.0 mi SSW 4.6 mph - N/A   Clear
1:52 PM 21.0 °F 12.4 °F 9.0 °F 60% 30.53 in 10.0 mi SSW 6.9 mph - N/A   Clear
2:52 PM 21.9 °F 13.4 °F 8.1 °F 55% 30.51 in 10.0 mi South 6.9 mph - N/A   Clear
3:52 PM 21.0 °F 11.4 °F 8.1 °F 57% 30.49 in 10.0 mi South 8.1 mph - N/A   Clear
4:52 PM 19.0 °F 11.1 °F 8.1 °F 62% 30.46 in 10.0 mi South 5.8 mph - N/A   Clear
5:52 PM 18.0 °F 12.7 °F 8.1 °F 65% 30.46 in 10.0 mi SE 3.5 mph - N/A   Clear
6:52 PM 16.0 °F 8.8 °F 7.0 °F 68% 30.42 in 10.0 mi South 4.6 mph - N/A   Clear
7:52 PM 17.1 °F 10.0 °F 7.0 °F 65% 30.39 in 10.0 mi SSE 4.6 mph - N/A   Clear
8:52 PM 18.0 °F 11.1 °F 8.1 °F 65% 30.35 in 10.0 mi SSE 4.6 mph - N/A   Clear
9:52 PM 19.9 °F 11.1 °F 8.1 °F 60% 30.32 in 10.0 mi South 6.9 mph - N/A   Clear
10:52 PM 21.0 °F 12.4 °F 8.1 °F 57% 30.28 in 10.0 mi South 6.9 mph - N/A   Scattered Clouds
11:52 PM 21.0 °F 13.4 °F 9.0 °F 60% 30.24 in 10.0 mi SSE 5.8 mph - N/A   Clear